Powrót do katalogu

STARLINK-37040

AktywnyŁącznośćVLEO
NORAD 69362·PAYLOAD·🇺🇸 United States

Wystrzelony Jun 4, 2026 z Cape Canaveral Space Force Station

Loading…

Następne Przeloty (najbliższe 24 godziny)

TLE

ŚwieżeSource: CelesTrak SupGP

Epoka: Sep 14, 2026, 21:38 UTC

1 69362C 26123K   26257.90187500 -.00037522  00000+0 -11080-2 0  2571
2 69362  53.1589 168.1705 0001523  91.6336  13.0850 15.34425477    16

Śledź STARLINK-37040 w czasie rzeczywistym z AllMySat

Download on the App Store